EZY94KU LJLJ-EGCC

Flight info

Callsign EZY94KU
Flight time 2h 5m
Altitude 36000
Route GIMIX1Z GIMIX DCT NANIT DCT ERKIR DCT BABEG DCT ADENU DCT LIRSU DCT DENUT L610 LAM UN57 WELIN T420 ELVOS
Aircraft A320/M-SDE3FGHIRWY/LB1

Departure

Time 2026-04-22 19:26
Airport Ljubljana Jože Pučnik Airport (LJLJ)

Arrival

Time 2026-04-22 21:31
Airport Manchester Airport (EGCC)
Time Latitude Longitude Altitude Speed Heading
2026-04-22 18:47 46.23030 14.45422 1262 ft 0 kts 40°
2026-04-22 19:15 46.23012 14.45400 1262 ft 4 kts 44°
2026-04-22 19:15 46.22995 14.45371 1265 ft 4 kts 63°
2026-04-22 19:15 46.22990 14.45340 1265 ft 3 kts 122°
2026-04-22 19:16 46.22995 14.45330 1264 ft 0 kts 127°
2026-04-22 19:18 46.22994 14.45331 1264 ft 0 kts 127°
2026-04-22 19:18 46.22988 14.45343 1261 ft 5 kts 127°
2026-04-22 19:18 46.22960 14.45398 1259 ft 7 kts 126°
2026-04-22 19:19 46.22922 14.45403 1265 ft 5 kts 212°
2026-04-22 19:19 46.22895 14.45373 1259 ft 5 kts 218°
2026-04-22 19:19 46.22837 14.45330 1264 ft 12 kts 171°
2026-04-22 19:19 46.22781 14.45420 1263 ft 13 kts 126°
2026-04-22 19:20 46.22722 14.45536 1259 ft 16 kts 126°
2026-04-22 19:20 46.22649 14.45678 1256 ft 19 kts 127°
2026-04-22 19:20 46.22563 14.45856 1252 ft 25 kts 124°
2026-04-22 19:20 46.22454 14.46065 1248 ft 27 kts 126°
2026-04-22 19:21 46.22342 14.46283 1239 ft 27 kts 127°
2026-04-22 19:21 46.22226 14.46512 1230 ft 29 kts 126°
2026-04-22 19:21 46.22101 14.46754 1224 ft 30 kts 126°
2026-04-22 19:21 46.21971 14.47005 1219 ft 32 kts 126°
2026-04-22 19:22 46.21844 14.47262 1213 ft 29 kts 126°
2026-04-22 19:22 46.21756 14.47431 1208 ft 18 kts 127°
2026-04-22 19:22 46.21702 14.47534 1206 ft 7 kts 126°
2026-04-22 19:22 46.21689 14.47560 1205 ft 2 kts 126°
2026-04-22 19:23 46.21684 14.47570 1205 ft 2 kts 126°
2026-04-22 19:23 46.21676 14.47587 1205 ft 3 kts 126°
2026-04-22 19:23 46.21662 14.47610 1204 ft 3 kts 137°
2026-04-22 19:23 46.21639 14.47614 1204 ft 3 kts 195°
2026-04-22 19:24 46.21619 14.47598 1203 ft 5 kts 212°
2026-04-22 19:24 46.21576 14.47552 1203 ft 10 kts 216°
2026-04-22 19:24 46.21513 14.47485 1202 ft 7 kts 223°
2026-04-22 19:24 46.21516 14.47437 1202 ft 3 kts 298°
2026-04-22 19:25 46.21524 14.47419 1203 ft 4 kts 304°
2026-04-22 19:25 46.21646 14.47179 1211 ft 65 kts 306°
2026-04-22 19:25 46.22048 14.46396 1230 ft 126 kts 306°
2026-04-22 19:25 46.22669 14.45184 1292 ft 170 kts 307°
2026-04-22 19:26 46.23371 14.43833 1999 ft 166 kts 306°
2026-04-22 19:26 46.23810 14.42306 2716 ft 171 kts 279°
2026-04-22 19:26 46.23948 14.40494 3065 ft 193 kts 276°
2026-04-22 19:26 46.24060 14.38452 3356 ft 215 kts 276°
2026-04-22 19:27 46.24180 14.36242 3842 ft 225 kts 276°
2026-04-22 19:27 46.24310 14.33965 4563 ft 229 kts 277°
2026-04-22 19:27 46.24446 14.31669 5399 ft 230 kts 279°
2026-04-22 19:27 46.24589 14.29349 6228 ft 233 kts 279°
2026-04-22 19:28 46.24741 14.27001 7022 ft 236 kts 280°
2026-04-22 19:28 46.24897 14.24632 7811 ft 238 kts 280°
2026-04-22 19:28 46.25055 14.22242 8621 ft 240 kts 281°
2026-04-22 19:28 46.25213 14.19835 9429 ft 242 kts 281°
2026-04-22 19:29 46.25374 14.17408 10126 ft 244 kts 281°
2026-04-22 19:29 46.25538 14.14953 10692 ft 246 kts 281°
2026-04-22 19:29 46.25701 14.12479 11405 ft 249 kts 281°
2026-04-22 19:29 46.26018 14.10006 11892 ft 255 kts 301°
2026-04-22 19:30 46.26673 14.08575 12077 ft 262 kts 318°
2026-04-22 19:30 46.28526 14.05993 12410 ft 292 kts 320°
2026-04-22 19:30 46.30052 14.03864 12635 ft 316 kts 320°
2026-04-22 19:30 46.31660 14.01577 13037 ft 330 kts 319°
2026-04-22 19:31 46.33294 13.99215 13715 ft 334 kts 319°
2026-04-22 19:31 46.34943 13.96807 14383 ft 338 kts 319°
2026-04-22 19:31 46.36603 13.94372 15012 ft 342 kts 319°
2026-04-22 19:31 46.38282 13.91910 15624 ft 345 kts 318°
2026-04-22 19:32 46.39954 13.89461 16232 ft 348 kts 319°
2026-04-22 19:32 46.41668 13.86959 16872 ft 352 kts 319°
2026-04-22 19:32 46.43400 13.84434 17490 ft 355 kts 319°
2026-04-22 19:32 46.45152 13.81882 18094 ft 359 kts 318°
2026-04-22 19:33 46.46923 13.79299 18701 ft 363 kts 318°
2026-04-22 19:33 46.48707 13.76689 19258 ft 365 kts 317°
2026-04-22 19:33 46.50499 13.74061 19819 ft 367 kts 317°
2026-04-22 19:33 46.52301 13.71417 20348 ft 370 kts 317°
2026-04-22 19:34 46.54102 13.68730 20873 ft 373 kts 316°
2026-04-22 19:34 46.55894 13.65994 21399 ft 375 kts 316°
2026-04-22 19:34 46.57689 13.63216 21937 ft 378 kts 316°
2026-04-22 19:34 46.59492 13.60412 22424 ft 381 kts 316°
2026-04-22 19:35 46.61310 13.57584 22892 ft 384 kts 316°
2026-04-22 19:35 46.63144 13.54739 23371 ft 386 kts 316°
2026-04-22 19:35 46.64365 13.52852 23663 ft 388 kts 316°
2026-04-22 19:35 46.66856 13.49014 24207 ft 391 kts 316°
2026-04-22 19:36 46.68728 13.46126 24636 ft 393 kts 316°
2026-04-22 19:36 46.70605 13.43224 25056 ft 394 kts 316°
2026-04-22 19:36 46.72490 13.40306 25453 ft 396 kts 316°
2026-04-22 19:36 46.74385 13.37372 25837 ft 398 kts 316°
2026-04-22 19:37 46.76286 13.34424 26234 ft 400 kts 316°
2026-04-22 19:37 46.78199 13.31455 26614 ft 403 kts 316°
2026-04-22 19:37 46.80254 13.28673 26975 ft 403 kts 321°
2026-04-22 19:37 46.82389 13.25994 27357 ft 405 kts 322°
2026-04-22 19:38 46.84547 13.23336 27704 ft 408 kts 322°
2026-04-22 19:38 46.86731 13.20667 28038 ft 410 kts 322°
2026-04-22 19:38 46.88930 13.17984 28400 ft 413 kts 322°
2026-04-22 19:38 46.91136 13.15289 28784 ft 414 kts 322°
2026-04-22 19:39 46.93346 13.12573 29191 ft 415 kts 322°
2026-04-22 19:39 46.95555 13.09838 29532 ft 417 kts 322°
2026-04-22 19:39 46.97770 13.07084 29834 ft 419 kts 322°
2026-04-22 19:39 46.99997 13.04308 30159 ft 421 kts 322°
2026-04-22 19:40 47.02232 13.01522 30454 ft 422 kts 322°
2026-04-22 19:40 47.04474 12.98727 30674 ft 424 kts 322°
2026-04-22 19:40 47.06729 12.95918 30937 ft 426 kts 322°
2026-04-22 19:40 47.09002 12.93088 31099 ft 431 kts 322°
2026-04-22 19:41 47.11295 12.90232 31296 ft 434 kts 322°
2026-04-22 19:41 47.13600 12.87349 31538 ft 436 kts 322°
2026-04-22 19:41 47.15899 12.84460 31879 ft 434 kts 322°
2026-04-22 19:41 47.18191 12.81577 32260 ft 433 kts 322°
2026-04-22 19:42 47.20480 12.78704 32597 ft 432 kts 322°
2026-04-22 19:42 47.22767 12.75836 32941 ft 432 kts 322°
2026-04-22 19:42 47.25050 12.72970 33280 ft 431 kts 322°
2026-04-22 19:42 47.27329 12.70103 33600 ft 431 kts 322°
2026-04-22 19:43 47.31878 12.64365 34219 ft 431 kts 322°
2026-04-22 19:43 47.34154 12.61486 34442 ft 432 kts 322°
2026-04-22 19:43 47.36431 12.58602 34694 ft 432 kts 322°
2026-04-22 19:44 47.38709 12.55716 34947 ft 432 kts 322°
2026-04-22 19:44 47.40984 12.52825 35171 ft 432 kts 322°
2026-04-22 19:44 47.43260 12.49930 35416 ft 432 kts 322°
2026-04-22 19:44 47.45537 12.47038 35661 ft 432 kts 322°
2026-04-22 19:45 47.47814 12.44147 35893 ft 431 kts 322°
2026-04-22 19:45 47.50090 12.41255 36129 ft 432 kts 322°
2026-04-22 19:45 47.52367 12.38351 36259 ft 432 kts 321°
2026-04-22 19:45 47.54630 12.35455 36294 ft 430 kts 321°
2026-04-22 19:46 47.59156 12.29650 36290 ft 431 kts 321°
2026-04-22 19:46 47.62901 12.24777 36292 ft 432 kts 318°
2026-04-22 19:47 47.67056 12.16389 36288 ft 438 kts 305°
2026-04-22 19:47 47.69744 12.09953 36287 ft 438 kts 305°
2026-04-22 19:48 47.72955 12.02273 36289 ft 438 kts 305°
2026-04-22 19:48 47.76165 11.94582 36289 ft 438 kts 305°
2026-04-22 19:49 47.79367 11.86881 36276 ft 438 kts 304°
2026-04-22 19:49 47.82564 11.79170 36288 ft 437 kts 304°
2026-04-22 19:50 47.85754 11.71455 36282 ft 438 kts 304°
2026-04-22 19:50 47.88946 11.63713 36278 ft 439 kts 304°
2026-04-22 19:51 47.92143 11.55949 36283 ft 440 kts 304°
2026-04-22 19:51 47.95328 11.48163 36267 ft 440 kts 304°
2026-04-22 19:52 47.98504 11.40364 36280 ft 440 kts 304°
2026-04-22 19:52 48.01683 11.32571 36294 ft 439 kts 304°
2026-04-22 19:53 48.04861 11.24762 36289 ft 439 kts 304°
2026-04-22 19:53 48.08025 11.16946 36293 ft 439 kts 304°
2026-04-22 19:54 48.11186 11.09115 36284 ft 439 kts 304°
2026-04-22 19:54 48.14318 11.01332 36289 ft 439 kts 304°
2026-04-22 19:55 48.17494 10.93434 36288 ft 440 kts 304°
2026-04-22 19:55 48.20652 10.85566 36289 ft 441 kts 304°
2026-04-22 19:56 48.23784 10.77727 36292 ft 441 kts 304°
2026-04-22 19:56 48.26925 10.69825 36282 ft 441 kts 304°
2026-04-22 19:57 48.30064 10.61907 36297 ft 440 kts 304°
2026-04-22 19:57 48.33190 10.54003 36313 ft 440 kts 304°
2026-04-22 19:58 48.36315 10.46094 36309 ft 440 kts 304°
2026-04-22 19:58 48.39431 10.38176 36303 ft 440 kts 303°
2026-04-22 20:00 48.50265 10.10442 36317 ft 438 kts 303°
2026-04-22 20:01 48.53345 10.02513 36314 ft 438 kts 303°
2026-04-22 20:01 48.56421 9.94576 36295 ft 438 kts 303°
2026-04-22 20:02 48.59479 9.86631 36301 ft 437 kts 303°
2026-04-22 20:02 48.62539 9.78687 36300 ft 437 kts 303°
2026-04-22 20:03 48.65592 9.70736 36301 ft 437 kts 303°
2026-04-22 20:03 48.68950 9.63123 36296 ft 434 kts 311°
2026-04-22 20:04 48.72673 9.55924 36278 ft 434 kts 311°
2026-04-22 20:04 48.76392 9.48704 36282 ft 435 kts 311°
2026-04-22 20:05 48.80099 9.41468 36279 ft 435 kts 310°
2026-04-22 20:05 48.83780 9.34263 36288 ft 435 kts 310°
2026-04-22 20:06 48.87481 9.26994 36294 ft 435 kts 310°
2026-04-22 20:06 48.91177 9.19722 36280 ft 435 kts 310°
2026-04-22 20:07 48.94874 9.12444 36292 ft 434 kts 310°
2026-04-22 20:07 48.98559 9.05158 36285 ft 435 kts 310°
2026-04-22 20:08 49.02249 8.97846 36285 ft 436 kts 310°
2026-04-22 20:08 49.05933 8.90514 36286 ft 436 kts 310°
2026-04-22 20:09 49.09616 8.83165 36270 ft 436 kts 310°
2026-04-22 20:09 49.13296 8.75809 36289 ft 435 kts 310°
2026-04-22 20:10 49.16962 8.68460 36307 ft 435 kts 310°
2026-04-22 20:10 49.20623 8.61107 36306 ft 434 kts 310°
2026-04-22 20:11 49.24279 8.53736 36302 ft 435 kts 310°
2026-04-22 20:11 49.27934 8.46331 36303 ft 436 kts 310°
2026-04-22 20:12 49.31597 8.38909 36289 ft 436 kts 310°
2026-04-22 20:12 49.34640 8.32741 36292 ft 437 kts 310°
2026-04-22 20:13 49.38915 8.24035 36289 ft 437 kts 310°
2026-04-22 20:13 49.42564 8.16573 36298 ft 437 kts 310°
2026-04-22 20:14 49.46214 8.09097 36295 ft 437 kts 310°
2026-04-22 20:14 49.49862 8.01612 36293 ft 438 kts 310°
2026-04-22 20:15 49.53500 7.94100 36300 ft 438 kts 310°
2026-04-22 20:15 49.57136 7.86584 36303 ft 437 kts 310°
2026-04-22 20:16 49.60765 7.79060 36301 ft 437 kts 309°
2026-04-22 20:16 49.64391 7.71519 36310 ft 438 kts 309°
2026-04-22 20:17 49.68008 7.63971 36297 ft 437 kts 309°
2026-04-22 20:17 49.71621 7.56414 36311 ft 437 kts 309°
2026-04-22 20:18 49.75209 7.48906 36316 ft 437 kts 309°
2026-04-22 20:18 49.78819 7.41330 36312 ft 437 kts 309°
2026-04-22 20:19 49.82424 7.33734 36312 ft 438 kts 309°
2026-04-22 20:19 49.86017 7.26116 36301 ft 438 kts 309°
2026-04-22 20:20 49.89607 7.18495 36314 ft 437 kts 309°
2026-04-22 20:20 49.93192 7.10864 36327 ft 437 kts 309°
2026-04-22 20:21 49.96770 7.03242 36326 ft 437 kts 309°
2026-04-22 20:21 50.00340 6.95598 36313 ft 437 kts 309°
2026-04-22 20:22 50.03685 6.87688 36306 ft 440 kts 302°
2026-04-22 20:22 50.06654 6.79351 36300 ft 440 kts 302°
2026-04-22 20:23 50.09619 6.71010 36306 ft 440 kts 302°
2026-04-22 20:23 50.12573 6.62649 36308 ft 440 kts 301°
2026-04-22 20:24 50.15520 6.54273 36304 ft 440 kts 301°
2026-04-22 20:24 50.18465 6.45897 36306 ft 440 kts 301°
2026-04-22 20:25 50.21553 6.37642 36319 ft 439 kts 304°
2026-04-22 20:25 50.24806 6.29618 36333 ft 437 kts 305°
2026-04-22 20:26 50.28051 6.21576 36340 ft 438 kts 304°
2026-04-22 20:26 50.31248 6.13470 36336 ft 438 kts 304°
2026-04-22 20:27 50.34417 6.05320 36346 ft 438 kts 304°
2026-04-22 20:27 50.37578 5.97150 36331 ft 438 kts 304°
2026-04-22 20:28 50.40714 5.89047 36352 ft 437 kts 304°
2026-04-22 20:28 50.43867 5.80909 36357 ft 437 kts 304°
2026-04-22 20:29 50.47015 5.72758 36355 ft 436 kts 304°
2026-04-22 20:29 50.50151 5.64605 36354 ft 436 kts 304°
2026-04-22 20:30 50.53283 5.56446 36339 ft 436 kts 304°
2026-04-22 20:30 50.55906 5.49603 36343 ft 436 kts 304°
2026-04-22 20:31 50.59021 5.41419 36356 ft 436 kts 303°
2026-04-22 20:31 50.62105 5.33277 36354 ft 435 kts 303°
2026-04-22 20:32 50.65210 5.25081 36359 ft 435 kts 303°
2026-04-22 20:32 50.68303 5.16890 36353 ft 435 kts 303°
2026-04-22 20:33 50.71391 5.08679 36343 ft 434 kts 303°
2026-04-22 20:33 50.74465 5.00495 36367 ft 433 kts 303°
2026-04-22 20:34 50.77526 4.92311 36371 ft 432 kts 303°
2026-04-22 20:34 50.80581 4.84111 36351 ft 433 kts 303°
2026-04-22 20:35 50.83634 4.75901 36348 ft 433 kts 303°
2026-04-22 20:35 50.86682 4.67668 36319 ft 434 kts 303°
2026-04-22 20:36 50.89719 4.59417 36352 ft 433 kts 303°
2026-04-22 20:36 50.92744 4.51187 36359 ft 432 kts 303°
2026-04-22 20:37 50.95765 4.42954 36361 ft 432 kts 303°
2026-04-22 20:37 50.98776 4.34719 36361 ft 431 kts 303°
2026-04-22 20:38 51.01784 4.26475 36361 ft 431 kts 303°
2026-04-22 20:38 51.04784 4.18222 36374 ft 431 kts 303°
2026-04-22 20:39 51.07779 4.09966 36367 ft 431 kts 302°
2026-04-22 20:39 51.10764 4.01698 36360 ft 431 kts 302°
2026-04-22 20:40 51.13740 3.93407 36353 ft 431 kts 302°
2026-04-22 20:40 51.16712 3.85112 36348 ft 431 kts 302°
2026-04-22 20:41 51.19682 3.76810 36338 ft 431 kts 302°
2026-04-22 20:41 51.22625 3.68492 36355 ft 430 kts 299°
2026-04-22 20:42 51.24474 3.59384 36363 ft 435 kts 285°
2026-04-22 20:42 51.25722 3.49929 36355 ft 435 kts 285°
2026-04-22 20:43 51.26964 3.40486 36355 ft 435 kts 285°
2026-04-22 20:43 51.28197 3.31038 36341 ft 434 kts 285°
2026-04-22 20:44 51.29412 3.21590 36367 ft 434 kts 284°
2026-04-22 20:44 51.30614 3.12143 36369 ft 434 kts 284°
2026-04-22 20:45 51.31803 3.02692 36369 ft 434 kts 284°
2026-04-22 20:45 51.32991 2.93238 36356 ft 434 kts 284°
2026-04-22 20:46 51.34752 2.79046 36353 ft 433 kts 284°
2026-04-22 20:46 51.35925 2.69605 36364 ft 432 kts 284°
2026-04-22 20:47 51.37091 2.60168 36370 ft 432 kts 284°
2026-04-22 20:47 51.38244 2.50733 36369 ft 432 kts 284°
2026-04-22 20:48 51.39383 2.41302 36370 ft 431 kts 284°
2026-04-22 20:48 51.40508 2.31934 36364 ft 430 kts 284°
2026-04-22 20:49 51.41634 2.22541 36386 ft 429 kts 284°
2026-04-22 20:49 51.42784 2.13178 36386 ft 428 kts 285°
2026-04-22 20:50 51.43926 2.03824 36390 ft 427 kts 284°
2026-04-22 20:50 51.45047 1.94470 36385 ft 427 kts 284°
2026-04-22 20:51 51.46140 1.85125 36385 ft 426 kts 284°
2026-04-22 20:51 51.47222 1.75806 36398 ft 424 kts 284°
2026-04-22 20:52 51.48289 1.66503 36401 ft 423 kts 284°
2026-04-22 20:52 51.49349 1.57211 36399 ft 423 kts 284°
2026-04-22 20:53 51.50405 1.47936 36395 ft 422 kts 284°
2026-04-22 20:53 51.51452 1.38664 36380 ft 422 kts 283°
2026-04-22 20:54 51.52484 1.29409 36393 ft 421 kts 283°
2026-04-22 20:54 51.53507 1.20145 36394 ft 421 kts 283°
2026-04-22 20:55 51.54519 1.10896 36390 ft 420 kts 283°
2026-04-22 20:55 51.55527 1.01652 36388 ft 420 kts 283°
2026-04-22 20:56 51.56532 0.92409 36384 ft 420 kts 283°
2026-04-22 20:56 51.57531 0.83153 36034 ft 419 kts 283°
2026-04-22 20:57 51.58018 0.78595 35374 ft 419 kts 283°
2026-04-22 20:57 51.58516 0.73926 34752 ft 418 kts 283°
2026-04-22 20:57 51.58997 0.69391 34250 ft 414 kts 283°
2026-04-22 20:57 51.59472 0.64863 33735 ft 408 kts 284°
2026-04-22 20:58 51.59943 0.60384 33191 ft 404 kts 284°
2026-04-22 20:58 51.60409 0.55953 32654 ft 400 kts 284°
2026-04-22 20:58 51.60868 0.51551 32393 ft 398 kts 284°
2026-04-22 20:58 51.61325 0.47161 32378 ft 399 kts 283°
2026-04-22 20:59 51.62245 0.38294 32397 ft 403 kts 283°
2026-04-22 20:59 51.63160 0.29375 32397 ft 404 kts 283°
2026-04-22 21:00 51.64232 0.20529 32399 ft 399 kts 292°
2026-04-22 21:00 51.65422 0.16550 32401 ft 393 kts 307°
2026-04-22 21:00 51.67216 0.13283 32401 ft 389 kts 320°
2026-04-22 21:01 51.71339 0.07618 32397 ft 390 kts 321°
2026-04-22 21:01 51.75497 0.02002 32399 ft 390 kts 321°
2026-04-22 21:02 51.79651 -0.03649 32452 ft 392 kts 320°
2026-04-22 21:02 51.83829 -0.09368 32455 ft 393 kts 320°
2026-04-22 21:03 51.88003 -0.15092 32405 ft 393 kts 320°
2026-04-22 21:03 51.92174 -0.20827 32408 ft 393 kts 320°
2026-04-22 21:04 51.96344 -0.26576 32408 ft 394 kts 320°
2026-04-22 21:04 52.00513 -0.32338 32407 ft 394 kts 320°
2026-04-22 21:05 52.04677 -0.38109 32392 ft 393 kts 320°
2026-04-22 21:05 52.08813 -0.43863 32391 ft 393 kts 320°
2026-04-22 21:06 52.12960 -0.49661 32395 ft 393 kts 320°
2026-04-22 21:06 52.15042 -0.52572 32227 ft 394 kts 320°
2026-04-22 21:06 52.17113 -0.55467 31972 ft 392 kts 320°
2026-04-22 21:07 52.19178 -0.58352 31727 ft 390 kts 320°
2026-04-22 21:07 52.21234 -0.61223 31465 ft 388 kts 320°
2026-04-22 21:07 52.23280 -0.64083 31215 ft 387 kts 320°
2026-04-22 21:07 52.25312 -0.66941 30927 ft 383 kts 320°
2026-04-22 21:08 52.27320 -0.69770 30448 ft 379 kts 320°
2026-04-22 21:08 52.29306 -0.72576 29943 ft 375 kts 320°
2026-04-22 21:08 52.31260 -0.75342 29478 ft 369 kts 320°
2026-04-22 21:08 52.33188 -0.78068 29024 ft 364 kts 320°
2026-04-22 21:09 52.35092 -0.80755 28579 ft 359 kts 320°
2026-04-22 21:09 52.36976 -0.83412 28141 ft 355 kts 321°
2026-04-22 21:09 52.38831 -0.86033 27726 ft 350 kts 321°
2026-04-22 21:09 52.40640 -0.88594 27312 ft 346 kts 321°
2026-04-22 21:10 52.42452 -0.91166 26911 ft 343 kts 321°
2026-04-22 21:10 52.44253 -0.93730 26515 ft 342 kts 321°
2026-04-22 21:10 52.46045 -0.96285 26095 ft 341 kts 321°
2026-04-22 21:10 52.47835 -0.98835 25683 ft 340 kts 321°
2026-04-22 21:11 52.49620 -1.01377 25272 ft 340 kts 320°
2026-04-22 21:11 52.51406 -1.03924 24858 ft 340 kts 320°
2026-04-22 21:11 52.53189 -1.06468 24441 ft 339 kts 320°
2026-04-22 21:11 52.54966 -1.09014 24014 ft 339 kts 320°
2026-04-22 21:12 52.56164 -1.10734 23689 ft 338 kts 321°
2026-04-22 21:12 52.58505 -1.14096 23094 ft 337 kts 320°
2026-04-22 21:12 52.59694 -1.15804 22808 ft 336 kts 320°
2026-04-22 21:12 52.61449 -1.18324 22367 ft 334 kts 321°
2026-04-22 21:13 52.63195 -1.20833 21947 ft 333 kts 321°
2026-04-22 21:13 52.64936 -1.23340 21510 ft 333 kts 320°
2026-04-22 21:13 52.66675 -1.25852 21092 ft 332 kts 320°
2026-04-22 21:13 52.68412 -1.28360 20665 ft 332 kts 320°
2026-04-22 21:14 52.70195 -1.30811 20311 ft 340 kts 326°
2026-04-22 21:14 52.72239 -1.32969 19826 ft 353 kts 329°
2026-04-22 21:14 52.74332 -1.35104 19559 ft 354 kts 329°
2026-04-22 21:14 52.76434 -1.37239 19105 ft 355 kts 329°
2026-04-22 21:15 52.78546 -1.39384 18650 ft 357 kts 328°
2026-04-22 21:15 52.80661 -1.41537 18174 ft 357 kts 328°
2026-04-22 21:15 52.82769 -1.43689 17729 ft 355 kts 328°
2026-04-22 21:15 52.84836 -1.45806 17291 ft 354 kts 328°
2026-04-22 21:16 52.86923 -1.47948 16844 ft 353 kts 328°
2026-04-22 21:16 52.89009 -1.50090 16406 ft 352 kts 328°
2026-04-22 21:16 52.91089 -1.52223 15979 ft 352 kts 328°
2026-04-22 21:16 52.93168 -1.54360 15528 ft 352 kts 328°
2026-04-22 21:17 52.95243 -1.56499 15085 ft 351 kts 328°
2026-04-22 21:17 52.97321 -1.58641 14650 ft 351 kts 328°
2026-04-22 21:17 52.99397 -1.60786 14204 ft 351 kts 327°
2026-04-22 21:17 53.01473 -1.62935 13717 ft 351 kts 327°
2026-04-22 21:18 53.03540 -1.65074 13293 ft 349 kts 327°
2026-04-22 21:18 53.05505 -1.67398 12862 ft 346 kts 316°
2026-04-22 21:18 53.07130 -1.70315 12433 ft 342 kts 309°
2026-04-22 21:18 53.08670 -1.73315 12033 ft 340 kts 309°
2026-04-22 21:19 53.10181 -1.76252 11897 ft 328 kts 309°
2026-04-22 21:19 53.11643 -1.79092 11758 ft 318 kts 309°
2026-04-22 21:19 53.13073 -1.81869 11450 ft 315 kts 309°
2026-04-22 21:19 53.14499 -1.84639 10969 ft 313 kts 309°
2026-04-22 21:20 53.15910 -1.87378 10393 ft 310 kts 309°
2026-04-22 21:20 53.17303 -1.90091 9773 ft 307 kts 309°
2026-04-22 21:20 53.18684 -1.92785 9283 ft 304 kts 309°
2026-04-22 21:20 53.20057 -1.95471 8839 ft 305 kts 309°
2026-04-22 21:21 53.21424 -1.98143 8584 ft 298 kts 309°
2026-04-22 21:21 53.22709 -2.00777 8449 ft 286 kts 300°
2026-04-22 21:21 53.23361 -2.03883 8442 ft 289 kts 272°
2026-04-22 21:21 53.23310 -2.07234 8438 ft 289 kts 262°
2026-04-22 21:22 53.23055 -2.10569 8088 ft 288 kts 256°
2026-04-22 21:22 53.22685 -2.13840 7707 ft 285 kts 255°
2026-04-22 21:22 53.22305 -2.17072 7332 ft 283 kts 255°
2026-04-22 21:22 53.21919 -2.20291 6970 ft 281 kts 255°
2026-04-22 21:23 53.21538 -2.23473 6586 ft 276 kts 255°
2026-04-22 21:23 53.21180 -2.26549 6199 ft 263 kts 255°
2026-04-22 21:23 53.20843 -2.29488 5815 ft 253 kts 255°
2026-04-22 21:23 53.20527 -2.32318 5443 ft 244 kts 255°
2026-04-22 21:24 53.20217 -2.35062 5052 ft 237 kts 255°
2026-04-22 21:24 53.19922 -2.37741 4666 ft 233 kts 255°
2026-04-22 21:24 53.19634 -2.40427 4283 ft 237 kts 255°
2026-04-22 21:24 53.19348 -2.43113 3912 ft 240 kts 255°
2026-04-22 21:25 53.19095 -2.45858 3622 ft 234 kts 263°
2026-04-22 21:25 53.19447 -2.48441 3357 ft 233 kts 300°
2026-04-22 21:25 53.20503 -2.50423 3107 ft 226 kts 324°
2026-04-22 21:25 53.21811 -2.51743 2990 ft 215 kts 351°
2026-04-22 21:26 53.23224 -2.51681 3006 ft 198 kts 30°
2026-04-22 21:26 53.24263 -2.50385 3015 ft 182 kts 59°
2026-04-22 21:26 53.25064 -2.48734 3013 ft 184 kts 59°
2026-04-22 21:26 53.25864 -2.47088 2998 ft 179 kts 59°
2026-04-22 21:27 53.26626 -2.45529 2826 ft 167 kts 60°
2026-04-22 21:27 53.27332 -2.44081 2601 ft 155 kts 60°
2026-04-22 21:27 53.27998 -2.42710 2408 ft 150 kts 61°
2026-04-22 21:27 53.28648 -2.41370 2219 ft 148 kts 61°
2026-04-22 21:28 53.29289 -2.40051 2014 ft 145 kts 60°
2026-04-22 21:28 53.29923 -2.38744 1801 ft 144 kts 59°
2026-04-22 21:28 53.30554 -2.37444 1610 ft 144 kts 58°
2026-04-22 21:28 53.31179 -2.36159 1407 ft 139 kts 58°
2026-04-22 21:29 53.31785 -2.34919 1203 ft 137 kts 56°
2026-04-22 21:29 53.32382 -2.33699 952 ft 134 kts 53°
2026-04-22 21:29 53.32970 -2.32499 787 ft 132 kts 53°
2026-04-22 21:29 53.33548 -2.31292 632 ft 135 kts 52°
2026-04-22 21:30 53.34133 -2.30072 431 ft 134 kts 51°
2026-04-22 21:30 53.34719 -2.28854 283 ft 134 kts 52°
2026-04-22 21:30 53.35271 -2.27709 239 ft 113 kts 51°
2026-04-22 21:30 53.35659 -2.26905 262 ft 64 kts 51°
2026-04-22 21:31 53.35857 -2.26498 270 ft 36 kts 51°
2026-04-22 21:31 53.35986 -2.26228 262 ft 24 kts 51°
2026-04-22 21:31 53.36058 -2.26146 257 ft 10 kts 334°
2026-04-22 21:31 53.36113 -2.26219 255 ft 11 kts 321°
2026-04-22 21:32 53.36142 -2.26306 255 ft 8 kts 257°
2026-04-22 21:32 53.36111 -2.26378 256 ft 7 kts 231°
2026-04-22 21:32 53.36097 -2.26409 256 ft 0 kts 233°
2026-04-22 21:33 53.36094 -2.26415 256 ft 4 kts 233°
2026-04-22 21:34 53.36048 -2.26515 256 ft 11 kts 229°
2026-04-22 21:34 53.36002 -2.26606 256 ft 10 kts 231°
2026-04-22 21:34 53.35961 -2.26692 256 ft 9 kts 231°
2026-04-22 21:34 53.35924 -2.26772 256 ft 10 kts 236°
2026-04-22 21:35 53.35865 -2.26912 256 ft 13 kts 232°
2026-04-22 21:35 53.35817 -2.27038 255 ft 12 kts 240°
2026-04-22 21:35 53.35768 -2.27149 255 ft 12 kts 231°
2026-04-22 21:35 53.35718 -2.27251 255 ft 11 kts 231°
2026-04-22 21:36 53.35670 -2.27353 254 ft 13 kts 231°
2026-04-22 21:36 53.35617 -2.27496 245 ft 14 kts 273°
2026-04-22 21:36 53.35676 -2.27599 247 ft 11 kts 322°
2026-04-22 21:36 53.35744 -2.27648 249 ft 11 kts 340°
2026-04-22 21:37 53.35813 -2.27734 252 ft 15 kts 310°
2026-04-22 21:37 53.35877 -2.27838 254 ft 11 kts 338°
2026-04-22 21:37 53.35938 -2.27848 255 ft 8 kts 349°
2026-04-22 21:37 53.35984 -2.27891 255 ft 7 kts 324°
2026-04-22 21:38 53.36033 -2.27900 255 ft 9 kts 24°
2026-04-22 21:38 53.36097 -2.27894 255 ft 12 kts 322°
2026-04-22 21:38 53.36163 -2.27983 255 ft 12 kts 321°
2026-04-22 21:38 53.36218 -2.28071 255 ft 10 kts 315°
2026-04-22 21:39 53.36266 -2.28153 255 ft 10 kts 315°
2026-04-22 21:39 53.36320 -2.28243 255 ft 13 kts 315°
2026-04-22 21:39 53.36379 -2.28344 255 ft 12 kts 312°
2026-04-22 21:39 53.36413 -2.28457 255 ft 11 kts 291°
2026-04-22 21:40 53.36456 -2.28548 255 ft 10 kts 315°
2026-04-22 21:40 53.36500 -2.28623 255 ft 9 kts 315°
2026-04-22 21:40 53.36544 -2.28698 255 ft 12 kts 315°
2026-04-22 21:40 53.36608 -2.28785 255 ft 10 kts 350°
2026-04-22 21:41 53.36663 -2.28727 255 ft 10 kts 44°
2026-04-22 21:41 53.36715 -2.28642 255 ft 11 kts 44°
2026-04-22 21:41 53.36761 -2.28566 255 ft 4 kts 44°
2026-04-22 21:41 53.36777 -2.28532 255 ft 3 kts 77°
2026-04-22 21:42 53.36764 -2.28501 255 ft 4 kts 134°
2026-04-22 21:42 53.36747 -2.28473 255 ft 3 kts 135°
2026-04-22 21:42 53.36738 -2.28458 255 ft 1 kts 135°
2026-04-22 21:42 53.36737 -2.28456 255 ft 0 kts 135°